Location: Exeidioux
(45.6312°N, 1.6819°E)
Time: 15:00:31
(UTC+00:00)

Cosmos 1666 - Pass Details

Date: 03 March 2021
Orbit: 497 x 518 km, 82.5° (Epoch: 15 April)

Event Time Altitude Azimuth Distance (km) Brightness Sun altitude
Rises 20:03:21 0° 209° (SSW) 2,573 6.4 -25.1°
Reaches altitude 10° 20:05:36 10° 220° (SW) 1,696 5.5 -25.4°
Maximum altitude 20:08:59 32° 285° (WNW) 874 4.4 -26.0°
Drops below altitude 10° 20:12:23 10° 350° (N) 1,715 5.7 -26.6°
Sets 20:14:41 0° 1° (N) 2,607 6.5 -26.9°
